Location: Taukkyan
(23.1052°N, 94.0030°E)
Time: 10:10:28
(UTC+00:00)

Cosmos 2333 Rocket - Pass Details

Date: 06 July 2020
Orbit: 837 x 864 km, 70.8° (Epoch: 14 August)

Event Time Altitude Azimuth Distance (km) Brightness Sun altitude
Exits shadow 15:19:26 15° 237° (WSW) 2,094 4.3 -31.6°
Maximum altitude 15:23:15 32° 292° (WNW) 1,420 3.8 -32.2°
Drops below altitude 10° 15:28:16 10° 355° (N) 2,472 5.2 -32.9°
Sets 15:31:00 0° 5° (N) 3,415 5.9 -33.3°
